Showing default

COSMOS 1603, 15333

Orbit data source: Space-Track

COSMOS 1603, 15333 is a payload satellite owned by TsNII-108 (CIS) in LEO that was launched on Fri, 28 Sep 1984 UTC via a PROTON-K/DM-2 launch vehicle from the Tyuratam Missile And Space Complex (TTMTR). Payload-class satellites include a variety of spacecraft equipped with specific instruments for various scientific and technological missions. These include communications satellites like Starlink; space stations such as the ISS; scientific satellites like the Hubble; Earth observation satellites from companies like Planet Labs, Umbra, and HawkEye 360; GPS; miniature CubeSats for education and research; and military/defense satellites.

Loading next visibility...
Identifier
15333, 1984-106A
Orbit
LEO
Last TLE update
8 hours ago
Origin
Manufacturer
Yuzhnoe
Mission
Defense Sigint
Bus & Motor
TSELINA-2, Unknown motor
Mass
3,250 kg wet, 3,250 kg dry
Launch date (UTC)
1984-09-28 (41 years ago)
Launch vehicle
PROTON-K/DM-2
Launch site
Tyuratam Missile And Space Complex (TTMTR)
Object type
Payload
Rocket body
Debris
Shape & HBR
Unknown shape, 19 m
Radar Cross Section
Large (>1 m²)

Expand to show TLE details & history

TLE from 8 hours ago
0 COSMOS 1603
1 15333U 84106A   25186.62468802 -.00000304  00000-0 -13377-3 0  9995
2 15333  71.0264  54.0762 0017927  45.1471 315.1104 14.14460056103739
Epoch: 2025-07-05T14:59Z
TLE epoch observation values (Epoch: 2025-07-05T14:59:33.044Z)
Latitude
-0.00006°
Longitude
-94.67156°
Altitude
837.388 km
Speed
7.439 km/s
True Right ascension
03h 36m 18s
True Declination
0° 00' 00"
Sunlit
Object was in daylight at epoch
Visualization orbit readout
Latitude
-33.6163°
Longitude
97.78947°
Altitude
869.058 km
Speed
7.41 km/s
Apparent Right ascension
19h 09m 20s
Apparent Declination
-47° 10' 07"
Sunlit
Object is in full shadow
Visualization observer readout
Local Sidereal Time
10:44:02
Azimuth
119.037° SE
Elevation
-51.209°
Doppler factor
1
Orbital elements
Apogee altitude
855.016 km
Perigee altitude
829.129 km
Semi-major axis
7,220.209 km
Eccentricity
0.00179
Inclination
71.0264°
RAAN
54.0762°
Arg. of periapsis
45.1471°
True anomaly
Unknown
Mean anomaly
315.1104°
Eccentric anomaly
Unknown
Mean motion
3.53768 °/min
Orbital period
101.76 mins
BSTAR
-0.00013377
Loading maneuver chart data...
Loading SW <> Apogee altitude chart data...

COSMOS 1603 Visibility forecast

Observer location: undefined°, undefined°

Span
Click to sort rows by Start time (UTC) header in descending order
Start Az.
Max El. time (UTC)
Max El. Az.
Max El.
End time (UTC)
End Az.
9 mins2025-07-06 01:43:47.605Z353.403° N2025-07-06 01:48:47.605Z74.616° E33.573°2025-07-06 01:52:47.605Z128.151° SE
7 mins2025-07-06 03:28:47.605Z303.26° NW2025-07-06 03:31:47.605Z263.678° W23.47°2025-07-06 03:35:47.605Z209.803° SW
9 mins2025-07-06 16:34:47.605Z204.979° SW2025-07-06 16:38:47.605Z231.174° WSW44.2°2025-07-06 16:43:47.605Z21.087° NNE
|